Location: Berlise
(49.6641°N, 4.1077°E)
Time: 20:06:39
(UTC+00:00)

Cosmos 2333 Rocket - Pass Details

Date: 27 January 2021
Orbit: 839 x 863 km, 70.8° (Epoch: 27 February)

Event Time Altitude Azimuth Distance (km) Brightness Sun altitude
Exits shadow 05:46:35 16° 318° (NW) 2,095 3.8 -15.5°
Maximum altitude 05:47:23 16° 328° (NNW) 2,073 3.9 -15.3°
Drops below altitude 10° 05:50:50 10° 6° (N) 2,482 4.6 -14.8°
Sets 05:54:20 0° 28° (NNE) 3,426 5.6 -14.2°
